Location: Natural Bridges National Monument
(37.6093°N, 109.9767°W)
Time: 12:05:11
(UTC-06:00)

Daily predictions for brighter satellites

Satellite Brightness Start Highest point End
(mag) Time Altitude Azimuth Time Altitude Azimuth Time Altitude Azimuth
BREEZE-M DEB (TANK) 4.0 20:50:12 10° WNW 20:54:04 63° SW 21:07:58 10° SE
Cosmos 2237 Rocket 4.5 20:57:36 10° WSW 21:02:30 30° WNW 21:07:28 10° N
PSLV R/B 3.4 20:59:18 10° WSW 21:02:49 89° N 21:06:23 10° ENE
ERS-1 Rocket 3.4 20:58:45 10° SE 21:03:30 45° ENE 21:08:18 10° N
ALOS 2.4 21:03:32 10° SSE 21:08:12 86° W 21:12:54 10° NNW
CZ-2C R/B 1.1 21:06:09 10° SE 21:08:17 35° ENE 21:10:27 10° N
APEX 3.9 21:07:24 10° NNW 21:11:38 65° ENE 21:17:11 10° SSE
Cosmos 2278 Rocket 3.8 21:07:37 10° NW 21:12:39 33° WSW 21:17:38 10° SSW
Envisat 4.0 21:09:03 10° SE 21:13:24 30° ENE 21:17:47 10° N
Cosmos 1892 Rocket 4.2 21:10:36 10° SSW 21:14:59 63° W 21:19:26 10° N
Resurs 01 Rocket 4.4 21:12:45 10° SW 21:15:42 17° W 21:18:39 10° NW
SPOT 5 4.0 21:13:44 10° ESE 21:17:15 24° ENE 21:20:43 10° NNE
CZ-4 DEB 3.4 21:14:54 10° S 21:18:04 56° W 21:21:16 10° NNW
Cosmos 1666 2.8 21:18:22 10° N 21:22:15 64° E 21:26:07 10° SSE
Cosmos 2369 Rocket 3.8 21:20:22 10° N 21:24:29 20° NE 21:28:35 10° ESE
Cosmos 1461 2.9 21:26:13 10° NNW 21:30:29 76° ENE 21:33:52 14° SE
SL-16 R/B 3.8 21:26:32 10° SW 21:31:48 39° WNW 21:37:05 10° N
USA 186 3.4 21:29:35 10° SSW 21:32:04 27° W 21:34:25 10° NW
Cosmos 1891 Rocket 4.4 21:29:54 10° N 21:36:01 78° E 21:42:03 10° S
PSLV R/B 4.3 21:34:24 17° ESE 21:36:05 29° ENE 21:38:51 10° N
Meteor 1-15 Rocket 4.5 21:39:01 10° NNW 21:44:36 72° W 21:50:14 10° S
Atlas Centaur 2 3.2 21:37:59 10° WSW 21:44:53 48° S 21:52:19 12° ESE
Cosmos 1515 4.1 21:48:44 18° SSE 21:51:14 44° E 21:54:55 10° NNE
YAOGAN 6 3.9 21:51:40 21° ESE 21:53:05 27° ENE 21:56:17 10° NNE
Cosmos 1939 Rocket 3.0 21:51:36 14° S 21:55:06 82° WSW 21:59:16 10° NNW
Cosmos 1602 Rocket 4.1 21:52:53 10° SSW 21:57:18 61° W 22:01:44 10° N
Cosmos 1603 4.3 21:55:24 10° SW 22:00:55 58° WNW 22:06:28 10° NNE
Cosmos 1825 Rocket 4.0 21:59:19 23° SSE 22:01:43 43° E 22:05:56 10° NNE
Milstar 3 Cent rocket 4.0 21:56:56 10° WSW 22:01:59 19° SSW 22:04:50 13° S
Tsikada Rocket 4.2 21:57:22 10° S 22:03:47 78° W 22:10:12 10° N
SeaSat 1 2.6 22:01:18 23° SE 22:04:16 61° ENE 22:09:09 10° NNW
H-2A R/B 3.7 22:07:09 15° E 22:08:57 18° ENE 22:12:14 10° NNE
Cosmos 1190 Rocket 4.1 22:05:44 14° S 22:10:06 54° ESE 22:15:18 10° NNE
Cosmos 1812 Rocket 3.6 22:05:46 10° N 22:10:09 77° W 22:13:09 20° S
Kosmos-1675 4.4 22:16:42 27° E 22:16:42 27° E 22:21:24 10° NE
COSMOS 2455 3.3 22:11:01 10° SW 22:16:58 63° WNW 22:22:57 10° NNE
CZ-4B R/B 3.4 22:12:04 10° NNE 22:17:12 74° ESE 22:21:21 16° S
SPOT 1/Viking Rocket 3.7 22:14:58 28° SE 22:17:30 57° ENE 22:22:33 10° N
Cosmos 1346 Rocket 3.1 22:17:11 38° SE 22:18:02 45° E 22:21:48 10° NNE
MetOp-A 4.1 22:16:00 25° SSE 22:19:16 85° ENE 22:24:40 10° NNW
H-2A R/B 3.7 22:16:49 10° SSW 22:20:32 30° W 22:24:22 10° NW
Cosmos 1943 3.1 22:17:32 10° SSW 22:23:12 87° ESE 22:28:55 10° NNE
Cosmos 1943 Rocket 3.6 22:21:00 10° N 22:25:28 24° ENE 22:27:40 19° E
Cosmos 676 Rocket 4.3 22:25:07 32° SSE 22:26:59 45° ESE 22:32:04 10° NNE
ISS -0.9 22:28:03 10° W 22:30:50 25° NNW 22:33:37 10° NNE
USA 245 4.2 22:28:32 29° SSE 22:31:40 81° ENE 22:36:51 10° N
Cosmos 2142 Rocket 4.4 22:25:57 10° N 22:32:15 76° E 22:35:26 31° SSE
SL-08 RB Rocket 4.0 22:31:29 39° ESE 22:32:42 50° ENE 22:37:05 10° N
ATLAS 3B R/B 2.9 22:31:36 10° SSW 22:39:20 89° WNW 22:46:57 10° NNE
Meteor 1-21 4.3 22:38:03 35° SSE 22:40:21 60° E 22:46:04 10° NNE
PSLV R/B 4.3 22:37:14 10° WNW 22:40:40 46° N 22:42:06 28° NE
Cosmos 1634 Rocket 3.9 22:35:43 10° N 22:41:55 87° W 22:45:07 31° S
Lacrosse 4 Rocket 1.5 22:42:36 22° SW 22:45:05 71° WNW 22:49:10 10° NNE
Cosmos 1953 Rocket 3.7 22:46:45 37° SSW 22:48:26 73° W 22:52:52 10° N
CZ-4 R/B 4.0 22:43:56 10° N 22:48:56 79° WNW 22:51:37 28° SSW
Landsat 7 4.0 22:49:43 49° ESE 22:50:35 57° ENE 22:55:16 10° N
SL-27 R/B 4.3 22:54:14 20° NE 22:54:14 20° NE 22:55:30 10° NNE
Cosmos 1766 3.3 22:50:09 10° N 22:54:08 66° E 22:54:08 66° E
USA 234 3.3 22:51:11 35° ESE 22:54:12 78° NE 23:00:47 10° NW
SPOT 5 4.3 22:52:51 17° SW 22:55:14 26° W 22:58:54 10° NW
Cosmos 407 Rocket 3.7 22:53:14 20° SSW 22:56:53 70° WNW 23:02:06 10° NNE
ARGOS 3.2 22:55:58 41° S 22:57:53 76° WSW 23:03:20 10° NNW
Cosmos-2242 3.4 22:57:36 10° N 23:01:49 50° ENE 23:01:49 50° ENE
Cosmos 2279 Rocket 3.9 22:57:42 10° N 23:04:00 82° E 23:06:00 46° SSE
Terra 1.9 23:06:00 55° E 23:06:24 57° ENE 23:11:04 10° N
Cosmos 2369 Rocket 2.5 23:03:22 10° NNW 23:08:53 56° WSW 23:10:29 42° SSW
Cosmos 1932 4.3 23:07:31 32° SSW 23:10:36 81° ESE 23:16:50 10° NNE
Cosmos 1607 4.1 23:13:26 48° ESE 23:13:33 48° ESE 23:19:31 10° NE
Cosmos 1954 Rocket 4.0 23:15:21 47° SSW 23:16:54 81° WNW 23:22:14 10° NNE
USA 238 DEB 3.6 23:16:01 33° SSW 23:19:27 74° ESE 23:26:31 10° NE
USA 238 3.6 23:16:14 34° SSW 23:19:33 74° ESE 23:26:37 10° NE
CZ-4C R/B 3.9 23:19:34 52° WSW 23:19:41 52° W 23:23:41 10° NNW
CARTOSAT-1 3.6 23:25:28 78° NW 23:25:28 78° NW 23:29:35 10° NNW
Cosmos 1805 4.1 23:21:24 10° N 23:24:22 45° NNE 23:24:22 45° NNE
Cosmos 2180 Rocket 4.5 23:20:11 10° N 23:26:29 80° W 23:28:08 52° S
Atlas Centaur 2 3.2 23:26:44 10° WSW 23:34:19 49° S 23:34:57 49° S
Cosmos 1741 Rocket 4.0 23:37:15 72° E 23:37:15 72° E 23:42:20 10° NNE
Cosmos 1953 3.1 23:35:51 10° NNW 23:38:56 50° NW 23:38:56 50° NW
COSMOS 2406 3.1 23:39:42 67° SSW 23:40:31 85° WNW 23:46:17 10° NNE
H-2A R/B 2.4 23:47:47 49° WSW 23:47:56 49° W 23:52:50 10° NNW
NOSS 3-2 (C) 4.3 23:55:28 34° E 23:55:28 34° E 23:59:55 10° NE
Cosmos 1850 Rocket 4.0 23:54:16 74° W 23:54:20 74° WNW 23:59:34 10° NNE
Cosmos 1842 Rocket 4.2 23:50:43 10° N 23:54:12 55° NNW 23:54:12 55° NNW
